Weather in Sosonka

Russia / Pskov Oblast     57°25′26″N   29°59′21″E
temp.,
°C
wind,
m/s
gust,
m/s
humid.,
%
clouds,
%
prec.,
mm/h
press.,
hPa
HPBL,
m
28 november, sun
sun2800:000nne4898100 1.1 994513
03:00−2n4897100 2.0 995405
06:00−3n2597100 0.8 996259
09:00−5wnw119888 1.1 99818
12:00−3wsw259390 0.1 1000291
15:00−2wsw3588100 0.1 1001329
18:00−2sw1292100 0.0 100387
21:00−2se1196100 0.1 100529
29 november, mon
mon2900:00−2ene1297100 0.0 100573
03:00−2ne2497100 0.1 1005179
06:00−3ene4996100 0.0 1004273
09:00−4ne41196100 0.0 1002322
12:00−2ne41095100 0.1 1000392
15:00−2ne41097100 0.6 997400
18:00−1ene51196100 1.4 993435
21:000ne41097100 3.4 989344
30 november, tue
tue3000:00+1ne4999100 1.0 986314
03:00+1ene38100100 1.9 983295
06:00+1ne37100100 0.8 980251
09:00+1nnw24100100 0.9 979153
12:00−2nw4898100 0.8 979256
15:00−3nw51096100 2.1 979421
18:00−3wnw71295100 1.6 981672
21:00−4wnw61295100 2.6 983863
1 december, wed
wed100:00−4wnw61293100 0.4 984900
03:00−5w61291100 0.7 986625
06:00−7w6129194 0.1 988494
09:00−10w5129473 0.1 991309
12:00−9w4109361 0.0 993325
15:00−8w499227 0.0 994305
18:00−12wsw259744 0.0 99597
21:00−13ssw239860 0.0 99554
2 december, thu
thu200:00−10s1295100 0.0 99474
03:00−7ese3792100 0.0 992227
06:00−6e51095100 0.5 988375
09:00−5ese51196100 2.9 985506
12:00−3ese3797100 2.1 983289
15:00+1ssw41095100 2.8 983704
18:000wnw3699100 1.4 985502
21:00−7nw51193100 2.0 993485